When you browse on this site, cookies collect data to enhance your experience and personalize the content and advertising you see.
Visit our Privacy Policy to learn more. By continuing to use the site, you agree to this use of cookies and data.
  • In Hungary
  • List of Countries
  • For 7 days
  • Water Temperature
  • Satellite Maps
  • Weather Map
  • News
  • Weather Widgets
  • user-avatar
    Login

    Hourly Weather Palembang

    Today, 19 July, Friday

    Time Temperature Precipitation Wind Pressure Humidity
    00:00 +24°C° 0 mm 1 mps 756 mmHg 95%
    01:00 +24°C° 0 mm 1 mps 756 mmHg 93%
    02:00 +24°C° 0 mm 1 mps 756 mmHg 94%
    03:00 +23°C° 0 mm 1 mps 756 mmHg 95%
    04:00 +23°C° 0 mm 1 mps 755 mmHg 97%
    05:00 +23°C° 0 mm 1 mps 755 mmHg 95%
    06:00 +24°C° 0 mm 1 mps 756 mmHg 94%
    07:00 +24°C° 0 mm 1 mps 756 mmHg 92%
    08:00 +26°C° 0 mm 1 mps 756 mmHg 83%
    09:00 +29°C° 0 mm 2 mps 756 mmHg 74%
    10:00 +31°C° 0 mm 2 mps 757 mmHg 66%
    11:00 +31°C° 0.2 mm 2 mps 756 mmHg 66%
    12:00 +31°C° 0.2 mm 2 mps 755 mmHg 67%
    13:00 +32°C° 0.2 mm 2 mps 755 mmHg 67%
    14:00 +32°C° 0.3 mm 2 mps 754 mmHg 66%
    15:00 +32°C° 0.3 mm 2 mps 754 mmHg 65%
    16:00 +32°C° 0.3 mm 2 mps 753 mmHg 64%
    17:00 +31°C° 0.2 mm 1 mps 754 mmHg 73%
    18:00 +29°C° 0.2 mm 1 mps 754 mmHg 81%
    19:00 +27°C° 0.2 mm 1 mps 755 mmHg 90%
    20:00 +27°C° 0 mm 1 mps 755 mmHg 92%
    21:00 +26°C° 0 mm 1 mps 756 mmHg 94%
    22:00 +26°C° 0 mm 1 mps 756 mmHg 95%
    23:00 +26°C° 0 mm 1 mps 756 mmHg 96%

    Tomorrow, 20 July, Saturday

    Time Temperature Precipitation Wind Pressure Humidity
    00:00 +25°C° 0 mm 1 mps 756 mmHg 97%
    01:00 +25°C° 0 mm 1 mps 756 mmHg 97%
    02:00 +25°C° 0 mm 1 mps 755 mmHg 97%
    03:00 +25°C° 0 mm 1 mps 755 mmHg 97%
    04:00 +25°C° 0 mm 1 mps 755 mmHg 97%
    05:00 +25°C° 0 mm 1 mps 755 mmHg 96%
    06:00 +25°C° 0 mm 1 mps 756 mmHg 95%
    07:00 +25°C° 0 mm 1 mps 756 mmHg 94%
    08:00 +27°C° 0.1 mm 2 mps 756 mmHg 86%
    09:00 +29°C° 0.1 mm 2 mps 756 mmHg 78%
    10:00 +31°C° 0.1 mm 2 mps 757 mmHg 71%
    11:00 +31°C° 0.8 mm 2 mps 756 mmHg 71%
    12:00 +32°C° 0.8 mm 2 mps 755 mmHg 71%
    13:00 +32°C° 0.8 mm 2 mps 755 mmHg 72%
    14:00 +32°C° 0.5 mm 2 mps 754 mmHg 71%
    15:00 +32°C° 0.5 mm 2 mps 754 mmHg 71%
    16:00 +32°C° 0.5 mm 2 mps 753 mmHg 71%
    17:00 +30°C° 0.1 mm 2 mps 754 mmHg 77%
    18:00 +29°C° 0.1 mm 2 mps 754 mmHg 84%
    19:00 +27°C° 0.1 mm 2 mps 754 mmHg 90%
    20:00 +27°C° 0.1 mm 1 mps 755 mmHg 91%
    21:00 +27°C° 0.1 mm 1 mps 756 mmHg 91%
    22:00 +27°C° 0.1 mm 1 mps 756 mmHg 92%
    23:00 +27°C° 0.1 mm 1 mps 756 mmHg 93%

    Day after tomorrow, 21 July, Sunday

    Time Temperature Precipitation Wind Pressure Humidity
    00:00 +26°C° 0.1 mm 1 mps 756 mmHg 94%
    01:00 +26°C° 0.1 mm 1 mps 755 mmHg 94%
    02:00 +26°C° 0.2 mm 1 mps 755 mmHg 95%
    03:00 +26°C° 0.2 mm 1 mps 755 mmHg 96%
    04:00 +25°C° 0.2 mm 1 mps 754 mmHg 96%
    05:00 +25°C° 0.1 mm 1 mps 755 mmHg 96%
    06:00 +26°C° 0.1 mm 1 mps 755 mmHg 95%
    07:00 +26°C° 0.1 mm 1 mps 755 mmHg 95%
    08:00 +28°C° 0 mm 2 mps 756 mmHg 84%
    09:00 +30°C° 0 mm 2 mps 756 mmHg 73%
    10:00 +33°C° 0 mm 3 mps 756 mmHg 62%
    11:00 +34°C° 0.4 mm 3 mps 755 mmHg 62%
    12:00 +34°C° 0.4 mm 3 mps 755 mmHg 62%
    13:00 +35°C° 0.4 mm 3 mps 754 mmHg 61%
    14:00 +34°C° 0.7 mm 3 mps 754 mmHg 64%
    15:00 +34°C° 0.7 mm 2 mps 753 mmHg 67%
    16:00 +32°C° 0.7 mm 2 mps 753 mmHg 70%
    17:00 +31°C° 0.1 mm 2 mps 753 mmHg 74%
    18:00 +29°C° 0.1 mm 2 mps 754 mmHg 78%
    19:00 +28°C° 0.1 mm 2 mps 754 mmHg 82%
    20:00 +27°C° 0 mm 2 mps 755 mmHg 85%
    21:00 +27°C° 0 mm 1 mps 756 mmHg 88%
    22:00 +26°C° 0 mm 1 mps 756 mmHg 90%
    23:00 +26°C° 0 mm 1 mps 756 mmHg 92%

    22 July, Monday

    Time Temperature Precipitation Wind Pressure Humidity
    00:00 +26°C° 0 mm 1 mps 755 mmHg 93%
    01:00 +26°C° 0 mm 1 mps 755 mmHg 94%
    02:00 +26°C° 0.1 mm 1 mps 755 mmHg 95%
    03:00 +26°C° 0.1 mm 1 mps 755 mmHg 95%
    04:00 +26°C° 0.1 mm 1 mps 754 mmHg 95%
    05:00 +26°C° 0.2 mm 1 mps 755 mmHg 95%
    06:00 +26°C° 0.2 mm 2 mps 755 mmHg 94%
    07:00 +26°C° 0.2 mm 2 mps 756 mmHg 94%
    08:00 +28°C° 0.3 mm 2 mps 756 mmHg 85%
    09:00 +30°C° 0.3 mm 2 mps 756 mmHg 77%
    10:00 +31°C° 0.3 mm 3 mps 756 mmHg 68%
    11:00 +31°C° 0.7 mm 3 mps 756 mmHg 69%
    12:00 +33°C° 0.7 mm 3 mps 755 mmHg 70%
    13:00 +33°C° 0.7 mm 3 mps 754 mmHg 71%
    14:00 +33°C° 0.5 mm 3 mps 754 mmHg 70%
    15:00 +33°C° 0.5 mm 3 mps 754 mmHg 68%
    16:00 +33°C° 0.5 mm 3 mps 753 mmHg 67%
    17:00 +30°C° 0 mm 2 mps 754 mmHg 72%
    18:00 +29°C° 0 mm 1 mps 754 mmHg 78%
    19:00 +27°C° 0 mm 1 mps 755 mmHg 83%
    20:00 +27°C° 0 mm 1 mps 756 mmHg 85%
    21:00 +26°C° 0 mm 1 mps 756 mmHg 88%
    22:00 +25°C° 0 mm 1 mps 757 mmHg 91%
    23:00 +25°C° 0 mm 1 mps 756 mmHg 92%

    23 July, Tuesday

    Time Temperature Precipitation Wind Pressure Humidity
    00:00 +25°C° 0 mm 1 mps 756 mmHg 93%
    01:00 +25°C° 0 mm 1 mps 756 mmHg 94%
    02:00 +25°C° 0 mm 1 mps 756 mmHg 94%
    03:00 +24°C° 0 mm 1 mps 755 mmHg 95%
    04:00 +24°C° 0 mm 1 mps 755 mmHg 96%
    05:00 +24°C° 0 mm 1 mps 756 mmHg 95%
    06:00 +25°C° 0 mm 1 mps 756 mmHg 93%
    07:00 +25°C° 0 mm 1 mps 756 mmHg 92%
    08:00 +27°C° 0.1 mm 1 mps 757 mmHg 83%
    09:00 +29°C° 0.1 mm 2 mps 757 mmHg 75%
    10:00 +31°C° 0.1 mm 2 mps 757 mmHg 66%
    11:00 +31°C° 0.4 mm 2 mps 756 mmHg 65%
    12:00 +32°C° 0.4 mm 2 mps 756 mmHg 63%
    13:00 +32°C° 0.4 mm 2 mps 755 mmHg 61%
    14:00 +31°C° 0.8 mm 2 mps 755 mmHg 68%
    15:00 +29°C° 0.8 mm 2 mps 755 mmHg 75%
    16:00 +28°C° 0.8 mm 1 mps 754 mmHg 82%
    17:00 +27°C° 0.7 mm 1 mps 755 mmHg 86%
    18:00 +26°C° 0.7 mm 2 mps 756 mmHg 90%
    19:00 +25°C° 0.7 mm 2 mps 756 mmHg 94%
    20:00 +25°C° 0.6 mm 1 mps 757 mmHg 95%
    21:00 +25°C° 0.6 mm 1 mps 758 mmHg 96%
    22:00 +24°C° 0.6 mm 1 mps 758 mmHg 97%
    23:00 +24°C° 0.6 mm 2 mps 758 mmHg 97%

    24 July, Wednesday

    Time Temperature Precipitation Wind Pressure Humidity
    00:00 +24°C° 0.6 mm 2 mps 758 mmHg 97%
    01:00 +23°C° 0.6 mm 2 mps 758 mmHg 97%
    02:00 +23°C° 0 mm 2 mps 757 mmHg 97%
    03:00 +23°C° 0 mm 1 mps 757 mmHg 96%
    04:00 +23°C° 0 mm 1 mps 757 mmHg 96%
    05:00 +23°C° 0 mm 1 mps 758 mmHg 96%
    06:00 +23°C° 0 mm 1 mps 758 mmHg 96%
    07:00 +23°C° 0 mm 1 mps 759 mmHg 96%
    08:00 +23°C° 0.1 mm 1 mps 759 mmHg 95%
    09:00 +21°C° 0.1 mm 0 mps 759 mmHg 95%
    10:00 +22°C° 0.1 mm 0 mps 759 mmHg 94%
    11:00 +24°C° 0 mm 1 mps 759 mmHg 92%
    12:00 +24°C° 0 mm 1 mps 758 mmHg 90%
    13:00 +25°C° 0 mm 1 mps 757 mmHg 88%
    14:00 +25°C° 0 mm 1 mps 757 mmHg 87%
    15:00 +24°C° 0 mm 1 mps 757 mmHg 87%
    16:00 +22°C° 0 mm 0 mps 757 mmHg 87%
    17:00 +24°C° 0 mm 1 mps 757 mmHg 87%
    18:00 +24°C° 0 mm 1 mps 757 mmHg 88%
    19:00 +23°C° 0 mm 1 mps 757 mmHg 88%
    20:00 +23°C° 0 mm 1 mps 758 mmHg 88%
    21:00 +23°C° 0 mm 1 mps 758 mmHg 89%
    22:00 +23°C° 0 mm 1 mps 758 mmHg 89%
    23:00 +23°C° 0 mm 1 mps 758 mmHg 89%
    Show more